Crescent City, CA

8:26 AM PDT on August 19, 2017 (GMT -0700)
McNamara

Weather History for KCEC - October, 2012

Change the Weather History Date:

Monday, October 15, 2012

  Actual Average Record
Temperature  
Mean Temperature 59 °F 54 °F  
Max Temperature 62 °F 61 °F 80 °F (1960)
Min Temperature 56 °F 46 °F 35 °F (1960)
Degree Days  
Heating Degree Days 6 11  
Month to date heating degree days 165  
Since 1 July heating degree days 969  
Cooling Degree Days 0 0  
Month to date cooling degree days 0  
Year to date cooling degree days 0  
Growing Degree Days 8 (Base 50)    
Moisture  
Dew Point 57 °F    
Average Humidity 92    
Maximum Humidity 100    
Minimum Humidity 84    
Precipitation  
Precipitation 0.21 in 0.12 in 1.42 in (1963)
Month to date precipitation 0.83 1.31  
Year to date precipitation 44.98 40.10  
Since 1 July precipitation 1.60  
Snow  
Snow 0.00 in - - ()
Month to date snowfall 0.0  
Since 1 July snowfall 0.0  
Since 1 September snowfall 0.0  
Snow Depth -    
Sea Level Pressure  
Sea Level Pressure 30.05 in    
Wind  
Wind Speed 11 mph (SSE)    
Max Wind Speed 18 mph    
Max Gust Speed 25 mph    
Visibility 3 miles    
Events Fog , Rain    
T = Trace of Precipitation, MM = Missing Value Source: NWS Daily Summary

Daily Weather History Graph

Daily Weather History Graph

Search for Another Location

Airport or City:

Trip Planner

Search our weather history database for the weather conditions in past years. The results will help you decide how hot, cold, wet, or windy it might be!

Date:

Astronomy

Oct. 15, 2012 Rise Set
Actual Time 7:29 AM PDT 6:34 PM PDT
Civil Twilight 7:01 AM PDT 7:02 PM PDT
Nautical Twilight 6:29 AM PDT 7:34 PM PDT
Astronomical Twilight 5:57 AM PDT 8:07 PM PDT
Moon 7:48 AM PDT (10/15) 6:36 PM PDT (10/15)
Length of Visible Light 12h 00m
Length of Day
11h 04m
New Moon, 0% of the Moon is Illuminated
Oct 15
New Moon
Oct 21
First Quarter
Oct 29
Full
Nov 6
Last Quarter
Nov 13
New

Hourly Weather History & Observations

Time (PDT) Temp. Dew Point Humidity Pressure Visibility Wind Dir Wind Speed Gust Speed Precip Events Conditions
12:09 AM 57.2 °F 57.2 °F 100% 30.14 in 1.2 mi SSE 8.1 mph - N/A   Overcast
12:26 AM 57.2 °F 57.2 °F 100% 30.14 in 0.5 mi SSE 9.2 mph - N/A Fog Fog
12:56 AM 57.0 °F 55.9 °F 96% 30.13 in 1.0 mi SSE 10.4 mph - 0.00 in Rain Light Rain
1:08 AM 57.2 °F 55.4 °F 94% 30.12 in 1.8 mi SSE 12.7 mph - 0.00 in Rain Light Rain
1:10 AM 57.2 °F 55.4 °F 94% 30.12 in 2.0 mi SSE 11.5 mph - 0.00 in Rain Light Rain
1:22 AM 55.4 °F 55.4 °F 100% 30.12 in 1.2 mi SSE 12.7 mph - 0.00 in Rain Light Rain
1:27 AM 55.4 °F 55.4 °F 100% 30.12 in 1.8 mi SSE 12.7 mph - 0.00 in   Overcast
1:33 AM 55.4 °F 55.4 °F 100% 30.13 in 3.0 mi SSE 12.7 mph - 0.00 in   Overcast
1:51 AM 55.4 °F 55.4 °F 100% 30.12 in 9.0 mi SSE 10.4 mph - 0.00 in   Overcast
1:56 AM 55.9 °F 55.9 °F 100% 30.12 in 9.0 mi SSE 11.5 mph - 0.00 in   Overcast
2:25 AM 55.4 °F 55.4 °F 100% 30.13 in 9.0 mi SSE 8.1 mph - 0.00 in Rain Light Rain
2:56 AM 57.0 °F 55.9 °F 96% 30.12 in 10.0 mi SSE 9.2 mph - 0.01 in   Overcast
3:56 AM 59.0 °F 57.0 °F 93% 30.09 in 10.0 mi SSE 11.5 mph - N/A   Overcast
5:56 AM 57.9 °F 55.9 °F 93% 30.09 in 8.0 mi SSE 5.8 mph - 0.00 in Rain Light Rain
6:56 AM 57.9 °F 57.0 °F 97% 30.10 in 9.0 mi Calm Calm - 0.00 in   Overcast
7:56 AM 57.9 °F 57.0 °F 97% 30.11 in 8.0 mi SSE 5.8 mph - N/A   Overcast
8:56 AM 59.0 °F 57.9 °F 96% 30.10 in 8.0 mi SSE 10.4 mph - 0.02 in Rain Light Rain
9:56 AM 60.1 °F 57.9 °F 93% 30.11 in 7.0 mi SSE 6.9 mph - 0.00 in   Overcast
11:56 AM 62.1 °F 57.0 °F 84% 30.08 in 10.0 mi SSE 13.8 mph - N/A   Overcast
12:34 PM 59.0 °F 57.2 °F 94% 30.08 in 2.5 mi SSE 13.8 mph - 0.00 in Rain Light Rain
12:56 PM 59.0 °F 57.0 °F 93% 30.08 in 3.0 mi SSE 12.7 mph 20.7 mph 0.01 in Rain Light Rain
1:36 PM 59.0 °F 57.2 °F 94% 30.06 in 2.5 mi SSE 13.8 mph - 0.00 in Rain Light Rain
1:56 PM 57.9 °F 57.0 °F 97% 30.06 in 2.0 mi SSE 13.8 mph 21.9 mph 0.01 in Rain Light Rain
2:08 PM 59.0 °F 57.2 °F 94% 30.05 in 1.2 mi SSE 15.0 mph 20.7 mph 0.02 in Rain Rain
2:21 PM 57.2 °F 57.2 °F 100% 30.05 in 1.8 mi SSE 15.0 mph - 0.04 in Rain Light Rain
2:40 PM 57.2 °F 57.2 °F 100% 30.04 in 2.0 mi SSE 15.0 mph - 0.05 in Rain Light Rain
2:56 PM 57.9 °F 57.0 °F 97% 30.05 in 1.8 mi SSE 15.0 mph - 0.05 in Rain Light Rain
3:15 PM 57.2 °F 57.2 °F 100% 30.05 in 1.2 mi SSE 12.7 mph - 0.03 in Rain Light Rain
3:53 PM 57.2 °F 57.2 °F 100% 30.04 in 2.0 mi SSE 16.1 mph - 0.06 in Rain Light Rain
3:54 PM 57.9 °F 57.9 °F 100% 30.04 in 2.0 mi SSE 15.0 mph - 0.06 in Rain Light Rain
4:02 PM 59.0 °F 57.2 °F 94% 30.03 in 3.0 mi SSE 15.0 mph 24.2 mph 0.00 in Rain Light Rain
4:11 PM 59.0 °F 57.2 °F 94% 30.03 in 1.8 mi SSE 15.0 mph 24.2 mph 0.01 in Rain Light Rain
4:29 PM 59.0 °F 57.2 °F 94% 30.03 in 1.2 mi SSE 16.1 mph 24.2 mph 0.01 in Rain Light Rain
4:56 PM 59.0 °F 59.0 °F 100% 30.02 in 1.5 mi SSE 17.3 mph 25.3 mph 0.05 in Rain Light Rain
5:06 PM 60.8 °F 59.0 °F 94% 30.02 in 2.0 mi SSE 17.3 mph 25.3 mph 0.00 in Rain Light Rain
5:20 PM 60.8 °F 59.0 °F 94% 30.01 in 1.8 mi SSE 17.3 mph 25.3 mph 0.01 in Rain Light Rain
5:38 PM 60.8 °F 59.0 °F 94% 30.00 in 1.2 mi SSE 17.3 mph 29.9 mph 0.04 in Rain Rain
5:56 PM 59.0 °F 59.0 °F 100% 30.00 in 1.0 mi SSE 17.3 mph 26.5 mph 0.08 in Rain Light Rain
6:32 PM 60.8 °F 59.0 °F 94% 30.00 in 2.0 mi SSE 17.3 mph 26.5 mph 0.11 in Rain Rain
6:51 PM 60.8 °F 59.0 °F 94% 29.99 in 1.8 mi SSE 17.3 mph 25.3 mph 0.15 in Rain Light Rain
6:56 PM 60.1 °F 59.0 °F 96% 29.99 in 2.0 mi SSE 16.1 mph - 0.15 in Rain Light Rain
7:05 PM 60.8 °F 59.0 °F 94% 29.99 in 1.5 mi SSE 17.3 mph 27.6 mph 0.00 in Rain Light Rain
7:12 PM 60.8 °F 59.0 °F 94% 29.98 in 1.2 mi SSE 19.6 mph 25.3 mph 0.01 in Rain Light Rain
7:52 PM 59.0 °F 57.2 °F 94% 29.99 in 1.8 mi SSE 16.1 mph 24.2 mph 0.04 in Rain Light Rain
7:56 PM 59.0 °F 57.9 °F 96% 29.99 in 2.0 mi SSE 16.1 mph 24.2 mph 0.05 in Rain Light Rain
8:12 PM 57.2 °F 57.2 °F 100% 29.99 in 1.8 mi SSE 16.1 mph - 0.02 in Rain Rain
8:23 PM 57.2 °F 57.2 °F 100% 29.99 in 2.5 mi SSE 13.8 mph - 0.03 in Rain Light Rain
8:52 PM 59.0 °F 57.2 °F 94% 29.99 in 1.8 mi SSE 17.3 mph - 0.03 in Rain Light Rain
8:56 PM 59.0 °F 57.9 °F 96% 29.99 in 1.8 mi South 19.6 mph 25.3 mph 0.03 in Rain Light Rain
9:32 PM 57.2 °F 57.2 °F 100% 29.99 in 2.5 mi SSE 16.1 mph 21.9 mph 0.07 in Rain Rain
9:56 PM 57.9 °F 57.9 °F 100% 29.99 in 2.5 mi SSE 15.0 mph 21.9 mph 0.10 in Rain Light Rain
10:23 PM 59.0 °F 57.2 °F 94% 29.99 in 3.0 mi SSE 19.6 mph 27.6 mph 0.05 in Rain Light Rain
10:56 PM 59.0 °F 57.9 °F 96% 29.99 in 2.5 mi SSE 18.4 mph 25.3 mph 0.10 in Rain Light Rain
11:19 PM 57.2 °F 57.2 °F 100% 29.99 in 3.0 mi SSE 16.1 mph - 0.06 in Rain Light Rain
11:56 PM 59.0 °F 57.9 °F 96% 29.99 in 3.0 mi SSE 15.0 mph 23.0 mph 0.14 in Rain Heavy Rain